Weather History for New Castle, PA

Change the Weather History Date:

Friday, November 16, 2012

  Actual Average Record
Temperature  
Mean Temperature 37 °F -  
Max Temperature 48 °F 50 °F 77 °F (1927)
Min Temperature 26 °F 30 °F 6 °F (1933)
Degree Days  
Heating Degree Days 28    
Moisture  
Dew Point 28 °F    
Average Humidity 76    
Maximum Humidity 96    
Minimum Humidity 48    
Precipitation  
Precipitation 0.00 in - - ()
Sea Level Pressure  
Sea Level Pressure 30.49 in    
Wind  
Wind Speed 1 mph (NNE)    
Max Wind Speed 7 mph    
Max Gust Speed -    
Visibility 9 miles    
Events      
Averages and records for this station are not official NWS values.
T = Trace of Precipitation, MM = Missing Value Source: NWS Daily Summary

Daily Weather History Graph

Daily Weather History Graph

Search for Another Location

Airport:

Trip Planner

Search our weather history database for the weather conditions in past years. The results will help you decide how hot, cold, wet, or windy it might be!

Date:

Astronomy

Nov. 16, 2012 Rise Set
Actual Time 7:10 AM EST 5:01 PM EST
Civil Twilight 6:41 AM EST 5:31 PM EST
Nautical Twilight 6:07 AM EST 6:04 PM EST
Astronomical Twilight 5:35 AM EST 6:37 PM EST
Moon 10:04 AM EST (11/16) 7:59 PM EST (11/16)
Length of Visible Light 10h 50m
Length of Day
9h 50m
Waxing Crescent, 11% of the Moon is Illuminated
Nov 16
Waxing Crescent
Nov 20
First Quarter
Nov 28
Full
Dec 6
Last Quarter
Dec 13
New

Hourly Weather History & Observations

Time (EST) Temp. Windchill Dew Point Humidity Pressure Visibility Wind Dir Wind Speed Gust Speed Precip Events Conditions
12:56 AM 30.0 °F - 26.1 °F 85% 30.41 in 10.0 mi Calm Calm - N/A   Clear
1:56 AM 30.0 °F - 26.1 °F 85% 30.42 in 10.0 mi Calm Calm - N/A   Clear
2:56 AM 27.1 °F - 25.2 °F 92% 30.43 in 10.0 mi Calm Calm - N/A   Clear
3:56 AM 27.1 °F - 25.2 °F 92% 30.43 in 10.0 mi Calm Calm - N/A   Clear
4:56 AM 27.1 °F - 25.2 °F 92% 30.44 in 9.0 mi Calm Calm - N/A   Clear
5:56 AM 26.1 °F - 25.2 °F 96% 30.46 in 8.0 mi Calm Calm - N/A   Mostly Cloudy
6:56 AM 27.1 °F - 25.2 °F 92% 30.47 in 8.0 mi Calm Calm - N/A   Overcast
7:13 AM 26.6 °F - 24.8 °F 93% 30.40 in 5.0 mi Calm Calm - N/A   Scattered Clouds
7:56 AM 27.1 °F - 26.1 °F 96% 30.49 in 7.0 mi Calm Calm - N/A   Clear
8:56 AM 30.0 °F - 27.1 °F 89% 30.51 in 6.0 mi Calm Calm - N/A   Clear
9:56 AM 36.0 °F - 31.1 °F 82% 30.51 in 10.0 mi Calm Calm - N/A   Clear
10:56 AM 41.9 °F 39.0 °F 32.9 °F 70% 30.51 in 10.0 mi NE 4.6 mph - N/A   Clear
11:56 AM 45.0 °F 41.2 °F 32.9 °F 63% 30.49 in 10.0 mi Variable 6.9 mph - N/A   Clear
12:56 PM 45.9 °F 43.6 °F 32.0 °F 58% 30.48 in 10.0 mi Variable 4.6 mph - N/A   Clear
1:56 PM 47.8 °F - 30.0 °F 50% 30.48 in 10.0 mi ENE 4.6 mph - N/A   Clear
2:56 PM 48.9 °F - 30.0 °F 48% 30.48 in 10.0 mi Variable 4.6 mph - N/A   Clear
3:56 PM 47.8 °F - 30.0 °F 50% 30.49 in 10.0 mi NNW 5.8 mph - N/A   Clear
4:56 PM 45.9 °F 42.9 °F 29.1 °F 52% 30.51 in 10.0 mi North 5.8 mph - N/A   Clear
5:56 PM 43.0 °F - 28.0 °F 56% 30.53 in 10.0 mi Calm Calm - N/A   Clear
6:56 PM 39.9 °F 37.8 °F 28.0 °F 63% 30.54 in 10.0 mi North 3.5 mph - N/A   Clear
7:56 PM 37.9 °F - 29.1 °F 71% 30.56 in 10.0 mi Calm Calm - N/A   Clear
8:56 PM 37.9 °F - 30.0 °F 73% 30.57 in 10.0 mi Calm Calm - N/A   Clear
9:56 PM 36.0 °F - 30.0 °F 79% 30.58 in 10.0 mi Calm Calm - N/A   Clear
10:56 PM 34.0 °F - 30.0 °F 85% 30.58 in 10.0 mi Calm Calm - N/A   Clear
11:56 PM 31.1 °F - 29.1 °F 92% 30.58 in 10.0 mi Calm Calm - N/A   Clear